Simultaneous Nadir Overpasses (SNOs) Predictions

Prediction of SNOs between AQUA and METOP-A Satellite Orbit:

Table of predicted SNOs for the next 14.0 days since TLE Epoch: 3/23/2017
Index Date (AQUA) Time (AQUA) Lat,Lon (AQUA) SZA (AQUA ) Date (METOP-A) Time (METOP-A) Lat,Lon (METOP-A) SZA (METOP-A ) Distance(km) Time Diff (sec)
1 03/25/2017 03:40:37 -73.82, -60.84 108.01 03/25/2017 03:39:32 -73.84, -60.91 107.98 3.09 65
2 03/25/2017 04:30:06 73.91, 106.58 72.09 03/25/2017 04:30:10 73.91, 106.60 72.08 0.83 4
3 03/25/2017 05:19:36 -74.12, -86.25 107.71 03/25/2017 05:20:48 -74.11, -85.58 107.75 20.18 72
4 03/27/2017 23:14:55 -73.86, 5.49 109.08 03/27/2017 23:13:54 -73.85, 5.53 109.07 1.33 61
5 03/28/2017 00:04:23 73.91, 173.02 70.97 03/28/2017 00:04:32 73.92, 173.04 70.98 1.67 9
6 03/28/2017 00:53:57 -74.31, -20.28 108.61 03/28/2017 00:55:06 -74.32, -18.65 108.67 48.97 69
7 03/30/2017 18:49:11 -73.86, 71.92 110.18 03/30/2017 18:48:15 -73.87, 71.97 110.16 1.61 56
8 03/30/2017 19:38:39 73.91,-120.57 69.88 03/30/2017 19:38:53 73.93,-120.54 69.89 2.11 14
9 03/30/2017 20:28:17 -74.52, 45.66 109.49 03/30/2017 20:29:24 -74.48, 48.17 109.62 74.85 67
10 04/02/2017 14:23:28 -73.87, 138.32 111.25 04/02/2017 14:22:37 -73.88, 138.40 111.24 2.54 51
11 04/02/2017 15:12:56 73.93, -54.18 68.80 04/02/2017 15:13:15 73.94, -54.11 68.81 2.04 19
12 04/05/2017 09:57:44 -73.85,-155.19 112.36 04/05/2017 09:57:00 -73.84,-155.29 112.36 3.26 44
13 04/05/2017 10:47:13 73.96, 12.19 67.75 04/05/2017 10:47:37 73.95, 12.30 67.73 3.85 24




NCC Satellite Simultaneous Nadir Overpasses (SNOs) Prediction Service
